| time (UTC) | temp C | wind direction | speed KPH | gust KPH | rain 1hr cm | rain 24hr cm | rain mn cm | humidity % | barometer mb |
| 20260508151512 | 20 | 240 | 4.8 | 17.7 | 0.00 | 0.00 | 0.00 | 40 | 1016.0 |
| 20260508150010 | 19 | 313 | 6.4 | 14.5 | 0.00 | 0.00 | 0.00 | 44 | 1016.1 |
| 20260508144509 | 18 | 221 | 4.8 | 16.1 | 0.00 | 0.00 | 0.00 | 45 | 1016.2 |
| 20260508143008 | 18 | 216 | 6.4 | 19.3 | 0.00 | 0.00 | 0.00 | 43 | 1016.3 |
| 20260508141509 | 17 | 259 | 6.4 | 11.3 | 0.00 | 0.00 | 0.00 | 48 | 1016.3 |
| 20260508140003 | 16 | 203 | 3.2 | 11.3 | 0.00 | 0.00 | 0.00 | 50 | 1016.4 |
| 20260508134558 | 15 | 236 | 1.6 | 12.9 | 0.00 | 0.00 | 0.00 | 55 | 1016.5 |
| 20260508133054 | 14 | 198 | 1.6 | 8.0 | 0.00 | 0.00 | 0.00 | 60 | 1016.6 |
| 20260508131558 | 12 | 264 | 0.0 | 3.2 | 0.00 | 0.00 | 0.00 | 69 | 1016.7 |
| 20260508130050 | 11 | 355 | 0.0 | 1.6 | 0.00 | 0.00 | 0.00 | 72 | 1016.8 |
| 20260508124548 | 9 | 71 | 0.0 | 1.6 | 0.00 | 0.00 | 0.00 | 77 | 1016.9 |
| 20260508123049 | 8 | 40 | 0.0 | 3.2 | 0.00 | 0.00 | 0.00 | 81 | 1016.9 |
| 20260508121546 | 7 | 351 | 0.0 | 1.6 | 0.00 | 0.00 | 0.00 | 84 | 1016.8 |
| 20260508120054 | 6 | 355 | 0.0 | 1.6 | 0.00 | 0.00 | 0.00 | 87 | 1016.8 |
| 20260508114544 | 5 | 315 | 0.0 | 1.6 | 0.00 | 0.00 | 0.00 | 89 | 1016.6 |
| 20260508113053 | 4 | 285 | 0.0 | 1.6 | 0.00 | 0.00 | 0.00 | 90 | 1016.7 |
| 20260508111552 | 3 | 286 | 0.0 | 1.6 | 0.00 | 0.00 | 0.00 | 90 | 1016.7 |
| 20260508110049 | 2 | 288 | 0.0 | 0.0 | 0.00 | 0.00 | 0.00 | 90 | 1016.5 |
| 20260508104537 | 2 | 288 | 0.0 | 0.0 | 0.00 | 0.00 | 0.00 | 89 | 1016.3 |
| 20260508103044 | 2 | 288 | 0.0 | 0.0 | 0.00 | 0.00 | 0.00 | 89 | 1016.2 |
| 20260508101539 | 3 | 288 | 0.0 | 0.0 | 0.00 | 0.00 | 0.00 | 89 | 1016.1 |
| 20260508100031 | 3 | 288 | 0.0 | 0.0 | 0.00 | 0.00 | 0.00 | 89 | 1016.0 |
| 20260508094526 | 3 | 288 | 0.0 | 0.0 | 0.00 | 0.00 | 0.00 | 89 | 1015.9 |
| 20260508093025 | 3 | 288 | 0.0 | 1.6 | 0.00 | 0.00 | 0.00 | 89 | 1015.9 |
| 20260508091524 | 3 | 288 | 0.0 | 1.6 | 0.00 | 0.00 | 0.00 | 89 | 1015.9 |
| 20260508090022 | 3 | 288 | 0.0 | 1.6 | 0.00 | 0.00 | 0.00 | 89 | 1015.8 |
| 20260508084551 | 3 | 288 | 0.0 | 1.6 | 0.00 | 0.00 | 0.00 | 88 | 1015.8 |
| 20260508083110 | 3 | 288 | 0.0 | 0.0 | 0.00 | 0.00 | 0.00 | 88 | 1015.7 |
| 20260508081519 | 3 | 288 | 0.0 | 0.0 | 0.00 | 0.00 | 0.00 | 88 | 1015.6 |
| 20260508080018 | 4 | 288 | 0.0 | 1.6 | 0.00 | 0.00 | 0.00 | 88 | 1015.6 |
| 20260508074515 | 4 | 288 | 0.0 | 1.6 | 0.00 | 0.00 | 0.00 | 88 | 1015.6 |
| 20260508073016 | 4 | 288 | 0.0 | 1.6 | 0.00 | 0.00 | 0.00 | 88 | 1015.5 |
| 20260508071514 | 5 | 288 | 1.6 | 3.2 | 0.00 | 0.00 | 0.00 | 88 | 1015.6 |
| 20260508070010 | 5 | 288 | 0.0 | 1.6 | 0.00 | 0.00 | 0.00 | 87 | 1015.4 |
| 20260508064507 | 5 | 288 | 0.0 | 1.6 | 0.00 | 0.00 | 0.00 | 87 | 1015.5 |
| 20260508063006 | 5 | 288 | 0.0 | 0.0 | 0.00 | 0.00 | 0.00 | 87 | 1015.5 |
| 20260508061512 | 5 | 288 | 0.0 | 1.6 | 0.00 | 0.00 | 0.00 | 87 | 1015.7 |
| 20260508060004 | 5 | 278 | 0.0 | 0.0 | 0.00 | 0.00 | 0.00 | 86 | 1015.7 |
| 20260508054534 | 5 | 281 | 0.0 | 3.2 | 0.00 | 0.00 | 0.00 | 86 | 1015.8 |
| 20260508053033 | 6 | 294 | 0.0 | 0.0 | 0.00 | 0.00 | 0.00 | 84 | 1015.5 |
| 20260508051527 | 6 | 294 | 0.0 | 0.0 | 0.00 | 0.00 | 0.00 | 84 | 1015.5 |
| 20260508050027 | 6 | 294 | 0.0 | 0.0 | 0.00 | 0.00 | 0.00 | 83 | 1015.5 |
| 20260508044523 | 6 | 294 | 0.0 | 1.6 | 0.00 | 0.00 | 0.00 | 82 | 1015.6 |
| 20260508043021 | 7 | 294 | 0.0 | 1.6 | 0.00 | 0.00 | 0.00 | 81 | 1015.6 |
| 20260508041619 | 7 | 294 | 0.0 | 1.6 | 0.00 | 0.00 | 0.00 | 80 | 1015.5 |
| 20260508040046 | 7 | 261 | 0.0 | 1.6 | 0.00 | 0.00 | 0.00 | 79 | 1015.5 |
| 20260508034546 | 8 | 261 | 0.0 | 3.2 | 0.00 | 0.00 | 0.00 | 76 | 1015.5 |
| 20260508033039 | 8 | 261 | 0.0 | 1.6 | 0.00 | 0.00 | 0.00 | 75 | 1015.5 |
| 20260508031535 | 8 | 261 | 0.0 | 6.4 | 0.00 | 0.00 | 0.00 | 73 | 1015.5 |
| 20260508030133 | 8 | 278 | 1.6 | 4.8 | 0.00 | 0.00 | 0.00 | 72 | 1015.4 |
| 20260508024541 | 9 | 270 | 0.0 | 3.2 | 0.00 | 0.00 | 0.00 | 69 | 1015.4 |
| 20260508023028 | 10 | 248 | 0.0 | 4.8 | 0.00 | 0.00 | 0.00 | 67 | 1015.0 |
| 20260508021520 | 10 | 257 | 0.0 | 4.8 | 0.00 | 0.00 | 0.00 | 65 | 1014.8 |
| 20260508020015 | 11 | 271 | 0.0 | 4.8 | 0.00 | 0.00 | 0.00 | 61 | 1014.7 |
| 20260508014529 | 12 | 250 | 1.6 | 4.8 | 0.00 | 0.00 | 0.00 | 58 | 1014.4 |
| 20260508013044 | 13 | 268 | 0.0 | 3.2 | 0.00 | 0.00 | 0.00 | 54 | 1014.2 |
| 20260508011540 | 13 | 268 | 0.0 | 1.6 | 0.00 | 0.00 | 0.00 | 50 | 1013.9 |
| 20260508010031 | 14 | 268 | 1.6 | 3.2 | 0.00 | 0.00 | 0.00 | 46 | 1013.7 |
| 20260508004528 | 15 | 321 | 0.0 | 4.8 | 0.00 | 0.00 | 0.00 | 40 | 1013.6 |
| 20260508003047 | 15 | 292 | 3.2 | 8.0 | 0.00 | 0.00 | 0.00 | 38 | 1013.5 |
| 20260508001518 | 15 | 273 | 4.8 | 11.3 | 0.00 | 0.00 | 0.00 | 37 | 1013.3 |
| 20260508000012 | 16 | 300 | 4.8 | 12.9 | 0.00 | 0.00 | 0.00 | 35 | 1013.1 |
| 20260507234509 | 17 | 278 | 6.4 | 14.5 | 0.00 | 0.00 | 0.00 | 34 | 1013.0 |
| 20260507233005 | 17 | 263 | 4.8 | 14.5 | 0.00 | 0.00 | 0.00 | 33 | 1012.9 |
| 20260507231503 | 17 | 270 | 4.8 | 19.3 | 0.00 | 0.00 | 0.00 | 31 | 1012.7 |
| 20260507230101 | 17 | 279 | 11.3 | 17.7 | 0.00 | 0.00 | 0.00 | 32 | 1012.8 |
| 20260507224615 | 17 | 282 | 6.4 | 20.9 | 0.00 | 0.00 | 0.00 | 33 | 1012.7 |
| 20260507223059 | 18 | 272 | 6.4 | 20.9 | 0.00 | 0.00 | 0.00 | 34 | 1012.7 |
| 20260507221552 | 18 | 322 | 8.0 | 14.5 | 0.00 | 0.00 | 0.00 | 38 | 1012.4 |
| 20260507220047 | 18 | 345 | 6.4 | 24.1 | 0.00 | 0.00 | 0.00 | 35 | 1012.4 |
| 20260507214550 | 18 | 259 | 12.9 | 24.1 | 0.00 | 0.00 | 0.00 | 34 | 1012.3 |
| 20260507213044 | 18 | 317 | 9.7 | 19.3 | 0.00 | 0.00 | 0.00 | 36 | 1012.1 |
| 20260507211550 | 18 | 315 | 6.4 | 20.9 | 0.00 | 0.00 | 0.00 | 36 | 1012.0 |
| 20260507210039 | 19 | 327 | 8.0 | 27.4 | 0.00 | 0.00 | 0.00 | 36 | 1012.0 |
| 20260507204534 | 19 | 60 | 4.8 | 20.9 | 0.00 | 0.00 | 0.00 | 36 | 1011.8 |
| 20260507203033 | 20 | 282 | 12.9 | 27.4 | 0.00 | 0.00 | 0.00 | 35 | 1011.7 |
| 20260507201532 | 20 | 284 | 8.0 | 19.3 | 0.00 | 0.00 | 0.00 | 36 | 1011.7 |
| 20260507200104 | 19 | 298 | 9.7 | 17.7 | 0.00 | 0.00 | 0.00 | 39 | 1011.8 |
| 20260507194558 | 20 | 294 | 6.4 | 19.3 | 0.00 | 0.00 | 0.00 | 38 | 1011.9 |
| 20260507193024 | 20 | 305 | 8.0 | 24.1 | 0.00 | 0.00 | 0.00 | 36 | 1012.0 |
| 20260507191523 | 19 | 252 | 9.7 | 19.3 | 0.00 | 0.00 | 0.00 | 39 | 1012.1 |
| 20260507190052 | 20 | 5 | 14.5 | 22.5 | 0.00 | 0.00 | 0.00 | 41 | 1012.5 |
| 20260507184551 | 18 | 314 | 8.0 | 24.1 | 0.00 | 0.00 | 0.00 | 40 | 1012.5 |
| 20260507183048 | 19 | 300 | 6.4 | 19.3 | 0.00 | 0.00 | 0.00 | 40 | 1012.6 |
| 20260507181549 | 19 | 355 | 3.2 | 17.7 | 0.00 | 0.00 | 0.00 | 41 | 1012.8 |
| 20260507180048 | 20 | 248 | 14.5 | 25.7 | 0.00 | 0.00 | 0.00 | 38 | 1012.7 |
| 20260507174549 | 19 | 271 | 4.8 | 14.5 | 0.00 | 0.00 | 0.00 | 41 | 1012.9 |
| 20260507173043 | 18 | 279 | 8.0 | 19.3 | 0.00 | 0.00 | 0.00 | 44 | 1013.2 |
| 20260507171543 | 19 | 322 | 6.4 | 14.5 | 0.00 | 0.00 | 0.00 | 43 | 1013.0 |
| 20260507170043 | 19 | 282 | 9.7 | 20.9 | 0.00 | 0.00 | 0.00 | 43 | 1013.4 |
| 20260507164541 | 20 | 221 | 9.7 | 22.5 | 0.00 | 0.00 | 0.00 | 43 | 1013.4 |
| 20260507163036 | 20 | 308 | 12.9 | 22.5 | 0.00 | 0.00 | 0.00 | 44 | 1013.4 |
| 20260507161532 | 19 | 292 | 12.9 | 22.5 | 0.00 | 0.00 | 0.00 | 45 | 1013.7 |
| 20260507160034 | 18 | 271 | 11.3 | 17.7 | 0.00 | 0.00 | 0.00 | 49 | 1013.8 |
| 20260507154530 | 17 | 311 | 3.2 | 14.5 | 0.00 | 0.00 | 0.00 | 51 | 1013.9 |
| 20260507153031 | 16 | 41 | 0.0 | 9.7 | 0.00 | 0.00 | 0.00 | 53 | 1013.9 |